Location: Kumla
(59.1265°N, 15.1401°E)
Time: 23:03:21
(UTC+01:00)

Transit 2A - Visible Passes

Search period start: 06 December 2023 00:00
Search period end: 16 December 2023 00:00
Orbit: 600 x 953 km, 66.7° (Epoch: 06 December)

Date Brightness Start Highest point End Pass type
(mag) Time Alt. Az. Time Alt. Az. Time Alt. Az.
06 Dec 5.9 17:10:20 10° WSW 17:15:06 65° NW 17:17:54 22° NE visible
06 Dec 6.9 18:54:39 10° WNW 18:58:19 32° NNW 18:58:19 32° NNW visible
06 Dec 8.8 20:38:44 10° NW 20:38:45 10° NW 20:38:45 10° NW visible
07 Dec 5.7 16:35:18 10° SW 16:40:07 80° NW 16:43:52 15° NE visible
07 Dec 6.6 18:19:26 10° W 18:23:43 35° NNW 18:24:17 34° N visible
07 Dec 8.3 20:03:40 10° NW 20:04:43 16° NW 20:04:43 16° NW visible
08 Dec 5.7 16:00:20 10° SW 16:05:10 82° SE 16:09:40 10° NE visible
08 Dec 6.5 17:44:14 10° W 17:48:37 39° NNW 17:50:15 29° NNE visible
08 Dec 7.7 19:28:34 10° WNW 19:30:40 22° NW 19:30:40 22° NW visible
09 Dec 6.3 17:09:02 10° W 17:13:33 45° NNW 17:16:11 21° NE visible
09 Dec 7.1 18:53:26 10° WNW 18:56:37 29° NNW 18:56:37 29° NNW visible
10 Dec 6.1 16:33:53 10° WSW 16:38:30 53° NNW 16:42:08 14° NE visible
10 Dec 6.7 18:18:16 10° WNW 18:22:21 31° N 18:22:34 31° N visible
10 Dec 8.3 20:02:09 10° NW 20:02:59 15° NW 20:02:59 15° NW visible
11 Dec 5.9 15:58:46 10° WSW 16:03:28 65° NW 16:07:54 10° NE visible
11 Dec 6.7 17:43:04 10° WNW 17:47:13 33° N 17:48:30 27° NNE visible
11 Dec 7.7 19:27:08 10° NW 19:28:56 21° NW 19:28:56 21° NW visible
12 Dec 6.6 17:07:51 10° W 17:12:05 35° NNW 17:14:27 21° NE visible
12 Dec 7.1 18:52:04 10° NW 18:54:53 28° NNW 18:54:53 28° NNW visible
13 Dec 6.4 16:32:38 10° W 16:36:59 39° NNW 16:40:24 14° NE visible
13 Dec 6.7 18:16:58 10° WNW 18:20:50 31° N 18:20:50 31° N visible
13 Dec 8.3 20:00:30 10° NW 20:01:15 15° NW 20:01:15 15° NW visible
14 Dec 6.2 15:57:26 10° W 16:01:54 45° NNW 16:06:09 10° NE visible
14 Dec 6.6 17:41:50 10° WNW 17:45:50 31° N 17:46:47 28° NNE visible
14 Dec 7.7 19:25:31 10° NW 19:27:13 21° NW 19:27:13 21° NW visible
15 Dec 6.6 17:06:40 10° WNW 17:10:42 31° N 17:12:46 21° NE visible
15 Dec 7.0 18:50:32 10° NW 18:53:11 29° NNW 18:53:11 29° NNW visible
